Powrót do katalogu

COSMOS 2539

AktywnyNawigacjaGEO
NORAD 44457·PAYLOAD·🇷🇺 Russia

Wystrzelony Aug 5, 2019 z Baikonur Cosmodrome

Loading…

TLE

ŚwieżeSource: Space-Track

Epoka: Sep 14, 2026, 13:51 UTC

1 44457U 19048A   26257.57752770  .00000073  00000-0  00000-0 0  9998
2 44457   0.0166 126.3427 0000446 154.1072 293.0296  1.00271776 26121

Śledź COSMOS 2539 w czasie rzeczywistym z AllMySat

Download on the App Store